This is the latest recevied weather packets stored in our database for station/object KG5TTF. If no packets are shown the sender has not sent any weather packets the latest 10 day(s).
| Time | Temp. | Humidity | Pressure | Rain* | Wind** | Luminosity | Snow |
|---|---|---|---|---|---|---|---|
| 1777387478 | 2.78° C | 97% | 1019.6 hPa | 0 mm | - | 153 W/m² | - |
| 1777387173 | 2.78° C | 97% | 1019.7 hPa | 0 mm | - | 174 W/m² | - |
| 1777386869 | 2.22° C | 97% | 1019.6 hPa | 0 mm | - | 136 W/m² | - |
| 1777386566 | 2.78° C | 97% | 1019.3 hPa | 0 mm | - | 147 W/m² | - |
| 1777386263 | 2.22° C | 97% | 1019.4 hPa | 0 mm | - | 124 W/m² | - |
| 1777385961 | 2.78° C | 97% | 1019.6 hPa | 0 mm | - | 104 W/m² | - |
| 1777385656 | 2.78° C | 97% | 1019.7 hPa | 0 mm | - | 127 W/m² | - |
| 1777385354 | 2.78° C | 97% | 1019.7 hPa | 0 mm | - | 167 W/m² | - |
| 1777385050 | 2.78° C | 97% | 1019.7 hPa | 0 mm | - | 169 W/m² | - |
| 1777384748 | 2.78° C | 97% | 1019.6 hPa | 0 mm | - | 275 W/m² | - |
| 1777384448 | 2.22° C | 97% | 1019.4 hPa | 0 mm | - | 138 W/m² | - |
| 1777384138 | 2.22° C | 97% | 1019.2 hPa | 0 mm | - | 194 W/m² | - |
| 1777383835 | 2.22° C | 97% | 1019.6 hPa | 0 mm | - | 70 W/m² | - |
| 1777383530 | 1.67° C | 96% | 1019.4 hPa | 0 mm | - | 62 W/m² | - |
| 1777383227 | 1.67° C | 96% | 1019.4 hPa | 0 mm | - | 24 W/m² | - |
| 1777382924 | 1.67° C | 96% | 1019.4 hPa | 0 mm | - | 27 W/m² | - |
| 1777382619 | 1.67° C | 96% | 1019.3 hPa | 0 mm | - | 24 W/m² | - |
| 1777382315 | 1.67° C | 95% | 1019.3 hPa | 0 mm | - | 14 W/m² | - |
| 1777382012 | 1.67° C | 94% | 1019.2 hPa | 0 mm | - | 10 W/m² | - |
| 1777381712 | 2.22° C | 94% | 1019.1 hPa | 0 mm | - | 17 W/m² | - |
| 1777381407 | 2.22° C | 93% | 1018.7 hPa | 0 mm | - | 17 W/m² | - |
| 1777381104 | 2.22° C | 92% | 1018.5 hPa | 0 mm | - | 44 W/m² | - |
| 1777380801 | 2.22° C | 91% | 1018.6 hPa | 0 mm | - | 29 W/m² | - |
| 1777380498 | 2.22° C | 91% | 1018.5 hPa | 0 mm | - | 21 W/m² | - |
| 1777380195 | 2.22° C | 91% | 1018.3 hPa | 0 mm | - | 40 W/m² | - |
* Rain latest hour (hover to see other rain measurements)
** Current wind speed in m/s (hover to see current wind gust speed)